SR5NLK-1 Weather Reports


Display with metric or nautical units.
time (UTC)temp
F
wind
direction
speed
MPH
gust
MPH
rain 1hr
in
rain 24hr
in
rain mn
in
humidity
%
barometer
mb
20260901231446 59 247 5.0 11.0 0.00 0.04 0.00 86 1062.7
20260901230946 59 202 4.0 7.0 0.00 0.04 0.00 86 1059.5
20260901230446 59 202 4.0 9.0 0.00 0.04 0.00 86 1059.5
20260901225946 59 225 3.0 10.0 0.00 0.04 0.00 86 1073.7
20260901225446 59 202 5.0 9.0 0.00 0.04 0.00 86 1028.8
20260901224946 59 225 3.0 8.0 0.00 0.04 0.00 86 1044.5
20260901224845 59 225 6.0 8.0 0.00 0.04 0.00 86 1053.2
20260901224446 59 270 5.0 8.0 0.00 0.04 0.00 86 1064.2
20260901223946 59 247 9.0 9.0 0.00 0.04 0.00 86 1056.3
20260901223446 59 247 3.0 8.0 0.00 0.04 0.00 86 1067.4
20260901222946 59 247 7.0 8.0 0.00 0.04 0.00 86 1059.5
20260901222446 59 225 3.0 8.0 0.00 0.04 0.00 86 1081.5
20260901221946 59 225 6.0 8.0 0.00 0.04 0.00 86 1064.3
20260901221545 59 270 8.0 8.0 0.00 0.04 0.00 86 1073.6
20260901221446 59 225 5.0 8.0 0.00 0.04 0.00 86 1081.4
20260901220946 59 270 7.0 10.0 0.00 0.04 0.00 86 1075.2
20260901220446 59 247 9.0 10.0 0.00 0.04 0.00 86 1065.2
20260901215946 59 225 5.0 10.0 0.00 0.04 0.00 86 1084.7
20260901215446 58 225 3.0 10.0 0.00 0.04 0.00 85 1062.6
20260901214946 58 225 4.0 8.0 0.00 0.04 0.00 85 1050.0
20260901214446 59 270 5.0 9.0 0.00 0.04 0.00 85 1069.0
20260901214245 59 202 3.0 7.0 0.00 0.04 0.00 85 1046.9
20260901213946 59 225 5.0 7.0 0.00 0.04 0.00 85 1073.9
20260901213446 59 202 6.0 9.0 0.00 0.04 0.00 85 1076.8
20260901212946 59 202 6.0 8.0 0.00 0.04 0.00 85 1070.5
20260901212446 59 247 8.0 8.0 0.00 0.04 0.00 85 1064.8
20260901211946 59 247 5.0 9.0 0.00 0.04 0.00 84 1078.4
20260901211446 59 202 6.0 8.0 0.00 0.04 0.00 84 991.7
20260901210945 59 225 8.0 9.0 0.00 0.04 0.00 84 1059.5
20260901210446 59 202 8.0 8.0 0.00 0.04 0.00 84 1051.7
20260901205946 59 202 5.0 6.0 0.00 0.04 0.00 84 1059.5
20260901205446 59 247 5.0 6.0 0.00 0.04 0.00 84 1059.5
20260901204946 60 225 4.0 6.0 0.00 0.04 0.00 83 1072.2
20260901204446 60 225 2.0 4.0 0.00 0.04 0.00 83 1048.5
20260901203946 60 225 2.0 5.0 0.00 0.04 0.00 83 1080.0
20260901203645 60 225 2.0 5.0 0.00 0.04 0.00 83 1076.8
20260901203446 60 247 2.0 5.0 0.00 0.04 0.00 83 1050.1
20260901202946 60 247 4.0 5.0 0.00 0.04 0.00 83 1072.1
20260901202446 60 247 3.0 7.0 0.00 0.04 0.00 82 1069.0
20260901201946 60 247 4.0 7.0 0.00 0.04 0.00 82 1064.2
20260901201446 60 202 4.0 6.0 0.00 0.04 0.00 82 1067.5
20260901200946 60 157 2.0 7.0 0.00 0.04 0.00 82 1053.2
20260901200446 60 202 4.0 7.0 0.00 0.04 0.00 82 1079.5
20260901200345 60 202 5.0 7.0 0.00 0.04 0.00 82 1013.0
20260901195946 60 202 6.0 11.0 0.00 0.04 0.00 82 1057.9
20260901195446 61 202 5.0 8.0 0.00 0.04 0.00 81 1065.8
20260901194946 61 202 3.0 8.0 0.00 0.04 0.00 81 1069.0
20260901194446 61 202 4.0 9.0 0.00 0.04 0.00 81 1081.5
20260901193946 61 135 2.0 7.0 0.00 0.04 0.00 81 1050.1
20260901193446 61 202 4.0 8.0 0.00 0.04 0.00 80 1075.3
20260901193045 61 202 4.0 7.0 0.00 0.04 0.00 80 1062.7
20260901192946 61 202 3.0 7.0 0.00 0.04 0.00 80 1059.5
20260901192446 61 202 3.0 6.0 0.00 0.04 0.00 79 1046.9
20260901191946 62 247 2.0 6.0 0.00 0.04 0.00 79 1062.7
20260901191446 62 202 3.0 6.0 0.00 0.04 0.00 79 1081.5
20260901190946 62 202 4.0 6.0 0.00 0.04 0.00 79 1065.5
20260901190446 62 202 4.0 6.0 0.00 0.04 0.00 79 1050.1
20260901185946 62 202 5.0 5.0 0.00 0.04 0.00 79 1053.2
20260901185745 62 180 4.0 7.0 0.00 0.04 0.00 79 1065.8
20260901185447 62 202 4.0 7.0 0.00 0.04 0.00 78 1070.7
20260901184946 62 225 4.0 9.0 0.00 0.04 0.00 78 1043.8
20260901184446 62 202 5.0 7.0 0.00 0.04 0.00 77 1042.8
20260901183946 62 180 7.0 10.0 0.00 0.04 0.00 77 1025.6
20260901183446 63 202 10.0 12.0 0.00 0.04 0.00 77 1056.4
20260901182946 63 225 7.0 10.0 0.00 0.04 0.00 76 1046.9
20260901182445 63 157 5.0 8.0 0.00 0.04 0.00 76 1081.5
20260901181946 64 292 6.0 7.0 0.00 0.04 0.00 76 1039.8
20260901181446 64 247 2.0 10.0 0.00 0.04 0.00 75 1063.3
20260901180946 64 225 3.0 15.0 0.00 0.04 0.00 75 1065.8
20260901180446 64 202 9.0 9.0 0.00 0.04 0.00 74 1070.2
20260901175946 64 202 5.0 10.0 0.00 0.04 0.00 74 1059.5
20260901175446 65 225 3.0 11.0 0.00 0.04 0.00 73 1048.7
20260901175145 65 247 4.0 12.0 0.00 0.04 0.00 72 1084.7
20260901174946 65 225 3.0 12.0 0.00 0.04 0.00 72 1065.8
20260901174446 65 225 2.0 12.0 0.00 0.04 0.00 71 1053.2
20260901173946 66 202 9.0 13.0 0.00 0.04 0.00 70 1066.0
20260901173446 66 225 4.0 10.0 0.00 0.04 0.00 69 1054.8
20260901172946 66 247 9.0 10.0 0.00 0.04 0.00 69 1013.0
20260901172446 66 180 5.0 11.0 0.00 0.04 0.00 68 1056.4
20260901171946 66 180 4.0 9.0 0.00 0.04 0.00 67 1030.3
20260901171845 66 270 8.0 9.0 0.00 0.04 0.00 68 1064.3
20260901171446 66 270 5.0 9.0 0.00 0.04 0.00 67 1073.7
20260901170946 67 225 8.0 13.0 0.00 0.04 0.00 66 1062.7
20260901170446 67 247 9.0 11.0 0.00 0.04 0.00 65 1046.9
20260901165946 68 225 6.0 10.0 0.00 0.04 0.00 64 1055.2
20260901165446 68 247 4.0 8.0 0.00 0.04 0.00 64 1040.6
20260901164946 69 225 6.0 7.0 0.00 0.04 0.00 63 1076.8
20260901164545 69 225 6.0 6.0 0.00 0.04 0.00 63 1070.5
20260901164446 69 225 4.0 6.0 0.00 0.04 0.00 63 1067.1
20260901163946 69 202 4.0 5.0 0.00 0.04 0.00 63 1053.2
20260901163446 69 292 2.0 5.0 0.00 0.04 0.00 63 1046.9
20260901162946 69 225 2.0 6.0 0.00 0.04 0.00 63 1084.7
20260901162446 69 270 4.0 4.0 0.00 0.04 0.00 62 1028.7
20260901161946 69 315 3.0 8.0 0.00 0.04 0.00 62 1065.8
20260901161446 69 270 3.0 8.0 0.00 0.04 0.00 61 1069.0
20260901161245 69 225 3.0 8.0 0.00 0.04 0.00 61 1070.5
20260901160946 69 270 4.0 13.0 0.00 0.04 0.00 61 1053.2
20260901160446 70 22 3.0 12.0 0.00 0.04 0.00 60 1083.1
20260901155946 70 270 8.0 16.0 0.00 0.04 0.00 60 1084.7
20260901154947 70 270 6.0 11.0 0.00 0.04 0.00 60 1062.7
20260901154446 70 315 6.0 17.0 0.00 0.04 0.00 59 1013.0
20260901153945 70 270 8.0 17.0 0.00 0.04 0.00 58 1076.9
20260901153446 71 270 7.0 17.0 0.00 0.04 0.00 57 1026.1
20260901152946 71 270 16.0 20.0 0.00 0.04 0.00 57 1067.4
20260901152447 71 270 14.0 20.0 0.00 0.04 0.00 56 1056.4
20260901151947 71 270 14.0 25.0 0.00 0.04 0.00 56 1050.1
20260901151446 71 247 17.0 18.0 0.00 0.04 0.00 56 983.8
20260901150946 72 247 18.0 19.0 0.00 0.04 0.00 56 1068.6
20260901150645 72 270 10.0 23.0 0.00 0.04 0.00 56 1047.6
20260901150446 72 270 12.0 23.0 0.00 0.04 0.00 57 1038.2
20260901145946 72 225 16.0 21.0 0.00 0.04 0.00 57 1046.9
20260901145446 71 225 9.0 17.0 0.00 0.04 0.00 59 1064.2
20260901144946 72 225 3.0 18.0 0.00 0.04 0.00 58 1019.3
20260901144447 72 247 7.0 15.0 0.00 0.04 0.00 57 1065.8
20260901143946 73 225 10.0 21.0 0.00 0.04 0.00 57 1073.8
20260901143446 72 225 12.0 17.0 0.00 0.04 0.00 60 1016.2
20260901143345 72 270 17.0 17.0 0.00 0.04 0.00 60 1075.3
20260901142946 72 337 4.0 16.0 0.00 0.04 0.00 60 1073.7
20260901142447 71 225 13.0 17.0 0.00 0.04 0.00 59 1056.5
20260901141947 71 270 9.0 18.0 0.00 0.04 0.00 60 1055.2
20260901141447 71 202 10.0 21.0 0.00 0.04 0.00 60 1075.2
20260901140947 71 270 6.0 18.0 0.00 0.04 0.00 59 1020.9
20260901140447 72 270 16.0 18.0 0.00 0.04 0.00 59 1065.8
20260901140046 72 247 8.0 16.0 0.00 0.04 0.00 59 1056.4
20260901135947 73 292 10.0 16.0 0.00 0.08 0.00 59 1050.1
20260901135447 73 202 7.0 19.0 0.00 0.08 0.00 61 1067.3
20260901134447 71 270 11.0 17.0 0.00 0.08 0.00 63 1043.8
20260901133947 71 247 17.0 17.0 0.00 0.08 0.00 65 1090.9
20260901133447 70 270 18.0 21.0 0.00 0.08 0.00 66 1037.4
20260901132947 70 225 9.0 12.0 0.00 0.08 0.00 67 1056.4
20260901132746 70 247 2.0 12.0 0.00 0.08 0.00 67 1061.1
20260901132447 70 180 10.0 13.0 0.00 0.08 0.00 67 1070.7
20260901131447 70 270 15.0 19.0 0.00 0.08 0.00 69 1056.4
20260901130947 70 270 18.0 19.0 0.00 0.08 0.00 70 1055.0
20260901130447 69 247 13.0 19.0 0.00 0.08 0.00 70 1068.9
20260901125947 69 247 7.0 15.0 0.02 0.08 0.00 71 1067.6
20260901125446 69 270 5.0 14.0 0.02 0.08 0.00 72 1083.1
20260901124947 68 270 6.0 21.0 0.02 0.08 0.00 72 1067.3
20260901124447 69 247 8.0 19.0 0.02 0.08 0.00 72 1080.1
20260901123947 69 270 5.0 20.0 0.02 0.08 0.00 73 1050.1
20260901123447 69 270 12.0 17.0 0.02 0.08 0.00 74 1078.6
20260901122947 68 157 5.0 18.0 0.02 0.08 0.00 74 1072.1
20260901122447 67 247 18.0 18.0 0.02 0.08 0.00 73 1084.7
20260901122146 67 247 8.0 15.0 0.02 0.08 0.00 73 1064.3
20260901121947 67 180 4.0 17.0 0.04 0.08 0.00 71 1053.2
20260901121447 67 225 13.0 17.0 0.04 0.08 0.00 69 1042.4
20260901120947 68 270 8.0 18.0 0.04 0.08 0.00 66 1076.8
20260901120447 70 270 17.0 17.0 0.02 0.06 0.00 64 1076.8
20260901115947 70 270 8.0 16.0 0.02 0.06 0.00 64 1011.4
20260901115447 70 247 8.0 20.0 0.02 0.06 0.00 65 1031.2
20260901114947 70 247 14.0 19.0 0.02 0.06 0.00 66 1073.4
20260901114846 69 270 11.0 19.0 0.02 0.06 0.00 66 1053.1
20260901114447 69 270 18.0 22.0 0.02 0.06 0.00 67 1073.7
20260901113947 69 225 12.0 21.0 0.02 0.06 0.00 67 1054.8
20260901113447 70 225 12.0 18.0 0.02 0.06 0.00 67 1035.0
20260901112947 70 270 6.0 17.0 0.02 0.06 0.00 67 1065.8
20260901112447 71 247 4.0 19.0 0.02 0.06 0.00 63 1009.8
20260901111947 73 292 12.0 24.0 0.00 0.04 0.00 58 1065.8
20260901111546 74 180 11.0 19.0 0.00 0.04 0.00 56 1053.2
20260901111447 74 225 8.0 19.0 0.00 0.04 0.00 55 1064.2
20260901110948 75 270 9.0 17.0 0.00 0.04 0.00 56 1016.2
20260901105947 72 247 6.0 20.0 0.00 0.04 0.00 61 1044.5
20260901105447 71 247 9.0 17.0 0.00 0.04 0.00 62 1073.7
20260901104947 71 270 14.0 18.0 0.00 0.04 0.00 61 1062.7
20260901104447 71 247 18.0 19.0 0.00 0.04 0.00 60 1051.6
20260901104246 70 247 11.0 19.0 0.00 0.04 0.00 60 1081.5
20260901103947 71 225 19.0 19.0 0.00 0.04 0.00 59 1063.9
20260901103447 71 202 14.0 22.0 0.00 0.04 0.00 57 1073.7
20260901102947 72 202 17.0 20.0 0.00 0.04 0.00 56 1046.9
20260901102447 72 225 12.0 17.0 0.00 0.04 0.00 56 1019.3
20260901101947 73 292 9.0 18.0 0.00 0.04 0.00 54 1059.5
20260901101447 74 247 9.0 14.0 0.00 0.04 0.00 53 1052.2
20260901100946 75 202 12.0 13.0 0.00 0.04 0.00 52 1073.6
20260901100447 76 157 5.0 17.0 0.00 0.04 0.00 52 1040.6
20260901095947 76 202 11.0 17.0 0.00 0.04 0.00 53 1056.4
20260901095447 75 157 5.0 17.0 0.00 0.04 0.00 53 1062.7
20260901094947 75 270 10.0 20.0 0.00 0.04 0.00 52 1024.0
20260901094447 75 292 6.0 21.0 0.00 0.04 0.00 52 1065.8
20260901093947 75 315 9.0 17.0 0.00 0.04 0.00 51 1062.7
20260901093646 75 270 10.0 14.0 0.00 0.04 0.00 54 1075.2
20260901093447 75 225 10.0 13.0 0.00 0.04 0.00 54 1078.4
20260901092947 74 247 8.0 23.0 0.00 0.04 0.00 54 1049.2
20260901092447 73 247 15.0 21.0 0.00 0.04 0.00 55 1069.0
20260901091947 73 247 10.0 20.0 0.00 0.04 0.00 55 1027.2
20260901091447 75 270 17.0 17.0 0.00 0.04 0.00 53 1050.1
20260901090947 75 270 6.0 19.0 0.00 0.04 0.00 52 1072.1
20260901090447 76 202 14.0 19.0 0.00 0.04 0.00 53 1080.5
20260901090346 76 180 4.0 20.0 0.00 0.04 0.00 53 1069.0
20260901085947 76 225 5.0 20.0 0.00 0.04 0.00 53 1073.7
20260901085447 76 225 11.0 20.0 0.00 0.04 0.00 54 1069.0
20260901084947 75 225 4.0 14.0 0.00 0.04 0.00 55 1053.2
20260901084447 74 292 5.0 15.0 0.00 0.04 0.00 54 1011.4
20260901083947 75 270 8.0 12.0 0.00 0.04 0.00 54 1087.8
20260901083447 75 247 12.0 21.0 0.00 0.04 0.00 53 1050.1
20260901083046 76 270 17.0 21.0 0.00 0.04 0.00 52 1069.0
20260901082947 76 270 21.0 21.0 0.00 0.04 0.00 51 1062.7
20260901082447 77 202 15.0 23.0 0.00 0.04 0.00 50 1053.2
20260901081947 78 270 8.0 19.0 0.00 0.04 0.00 51 1072.1
20260901081447 78 315 11.0 19.0 0.00 0.04 0.00 51 1061.1
20260901080947 78 247 14.0 17.0 0.00 0.04 0.00 51 1025.6
20260901080447 79 247 15.0 21.0 0.00 0.04 0.00 49 1075.2
20260901075947 80 225 12.0 19.0 0.00 0.04 0.00 49 1046.9
20260901075746 80 270 10.0 19.0 0.00 0.04 0.00 49 1064.2
20260901075447 80 180 11.0 21.0 0.00 0.04 0.00 49 1050.1
20260901074947 80 270 17.0 20.0 0.00 0.04 0.00 50 1056.4
20260901074447 80 180 14.0 14.0 0.00 0.04 0.00 51 1040.6
20260901073947 80 247 8.0 16.0 0.00 0.04 0.00 51 1065.9
20260901073447 80 270 6.0 17.0 0.00 0.04 0.00 52 1017.7
20260901072947 80 270 4.0 16.0 0.00 0.04 0.00 51 1069.0
20260901072446 80 247 6.0 18.0 0.00 0.04 0.00 50 1059.5
20260901071947 81 180 12.0 18.0 0.00 0.04 0.00 51 1056.0
20260901071447 80 225 9.0 12.0 0.00 0.04 0.00 53 1025.6
20260901070947 80 270 10.0 14.0 0.00 0.04 0.00 52 1078.4
20260901070447 80 202 6.0 19.0 0.00 0.04 0.00 53 1059.5
20260901065947 80 247 15.0 15.0 0.00 0.04 0.00 54 1059.5
20260901065447 79 225 2.0 11.0 0.00 0.04 0.00 56 1062.7
20260901065146 79 225 8.0 13.0 0.00 0.04 0.00 57 1069.0
20260901064947 79 247 4.0 13.0 0.00 0.04 0.00 57 1061.1
20260901063947 76 225 8.0 10.0 0.00 0.04 0.00 63 1013.0
20260901062947 72 225 1.0 10.0 0.00 0.04 0.00 66 1020.9
20260901062447 72 247 4.0 18.0 0.00 0.04 0.00 63 1081.5
20260901061947 74 247 8.0 19.0 0.00 0.04 0.00 61 1043.8
20260901061846 75 247 11.0 19.0 0.00 0.04 0.00 61 1054.8
20260901061447 76 247 3.0 13.0 0.00 0.04 0.00 63 1053.2
20260901060947 75 202 10.0 14.0 0.00 0.04 0.00 65 1065.8
20260901060447 75 202 4.0 18.0 0.00 0.04 0.00 65 1019.3
20260901055947 75 225 4.0 16.0 0.00 0.04 0.00 65 1040.6
20260901055447 76 202 8.0 12.0 0.00 0.04 0.00 66 1078.4
20260901054947 75 247 11.0 18.0 0.00 0.04 0.00 68 1022.5
20260901054546 75 202 3.0 12.0 0.00 0.04 0.00 71 1009.9
20260901054447 74 292 7.0 12.0 0.00 0.04 0.00 73 1070.2
20260901053947 72 247 2.0 11.0 0.00 0.04 0.00 77 1013.0
20260901053447 70 225 7.0 12.0 0.00 0.04 0.00 80 1070.5
20260901052947 69 202 8.0 16.0 0.00 0.04 0.00 82 1062.7
20260901052447 68 247 4.0 12.0 0.00 0.04 0.00 83 1091.0
20260901051447 67 202 6.0 12.0 0.00 0.04 0.00 88 1061.1
20260901051247 67 180 4.0 11.0 0.00 0.04 0.00 90 1068.9
20260901050947 67 225 9.0 11.0 0.00 0.04 0.00 91 1075.3
20260901050447 66 157 2.0 10.0 0.00 0.04 0.00 93 1069.0
20260901045947 64 247 4.0 8.0 0.00 0.04 0.00 92 1056.4
20260901045447 62 225 5.0 11.0 0.00 0.04 0.00 91 1065.8
20260901044947 62 225 5.0 10.0 0.00 0.04 0.00 91 1059.5
20260901044447 61 225 4.0 10.0 0.00 0.04 0.00 91 1070.5
20260901043947 61 225 7.0 11.0 0.00 0.04 0.00 91 1076.8
20260901043447 61 225 9.0 10.0 0.00 0.04 0.00 91 1078.4
20260901042947 61 202 5.0 10.0 0.00 0.04 0.00 91 1076.8
20260901042448 61 202 10.0 11.0 0.00 0.04 0.00 91 1072.1
20260901041948 61 202 7.0 12.0 0.00 0.04 0.00 91 1068.9
20260901041448 61 202 10.0 12.0 0.00 0.04 0.00 91 1056.4
20260901040948 61 202 8.0 10.0 0.00 0.04 0.00 91 1069.0
20260901040647 61 270 9.0 10.0 0.00 0.04 0.00 91 1095.6
20260901040448 61 225 4.0 8.0 0.00 0.04 0.00 91 1028.0
20260901035948 61 202 4.0 10.0 0.00 0.04 0.00 91 1028.7
20260901035448 61 202 8.0 8.0 0.00 0.04 0.00 91 1072.1
20260901034948 61 202 6.0 7.0 0.00 0.04 0.00 91 1059.5
20260901034448 61 180 6.0 8.0 0.00 0.04 0.00 91 1059.5
20260901033948 61 225 4.0 6.0 0.00 0.04 0.00 91 1053.3
20260901033448 62 202 7.0 7.0 0.00 0.04 0.00 91 1065.8
20260901033347 62 247 5.0 7.0 0.00 0.04 0.00 91 994.9
20260901032948 62 202 4.0 7.0 0.00 0.04 0.00 91 1046.9
20260901032448 62 202 2.0 10.0 0.00 0.04 0.00 91 1073.7
20260901031948 62 180 3.0 8.0 0.00 0.04 0.00 91 1078.3
20260901031448 62 225 4.0 5.0 0.00 0.04 0.00 91 1059.5
20260901030948 62 180 2.0 6.0 0.00 0.04 0.00 91 1065.8
20260901030448 62 180 2.0 5.0 0.00 0.04 0.00 91 1065.8
20260901030047 62 225 1.0 6.0 0.00 0.04 0.00 91 1050.0
20260901025948 62 180 1.0 6.0 0.00 0.04 0.00 91 1050.0
20260901025448 62 180 4.0 7.0 0.00 0.04 0.00 91 1056.4
20260901024948 62 225 5.0 9.0 0.00 0.04 0.00 91 1068.9
20260901024448 62 202 9.0 10.0 0.00 0.04 0.00 91 1034.4
20260901023948 62 225 4.0 6.0 0.00 0.04 0.00 91 1059.5
20260901023448 62 225 6.0 6.0 0.00 0.04 0.00 91 1064.2
20260901022948 62 202 5.0 8.0 0.00 0.04 0.00 91 1072.1
20260901022747 62 202 2.0 8.0 0.00 0.04 0.00 91 1011.4
20260901022448 62 202 8.0 8.0 0.00 0.04 0.00 91 1070.8
20260901022022 62 225 2.0 5.0 0.00 0.04 0.00 91 1078.0
20260901021948 62 225 2.0 5.0 0.00 0.04 0.00 91 1078.0
20260901021448 62 225 2.0 6.0 0.00 0.04 0.00 91 1065.8
20260901020948 62 225 4.0 5.0 0.00 0.04 0.00 91 1062.7
20260901020448 62 202 4.0 4.0 0.00 0.04 0.00 90 1031.8
20260901015948 62 225 3.0 5.0 0.00 0.04 0.00 90 1065.8
20260901015447 62 202 2.0 5.0 0.00 0.04 0.00 90 1065.8
20260901014948 62 202 3.0 6.0 0.00 0.04 0.00 90 1065.8
20260901014448 62 180 2.0 33.0 0.00 0.04 0.00 90 1065.8
20260901013948 62 247 4.0 5.0 0.00 0.04 0.00 90 1068.9
20260901013448 62 180 5.0 6.0 0.00 0.04 0.00 90 1062.6
20260901012948 62 180 3.0 5.0 0.00 0.04 0.00 90 1069.0
20260901012448 62 202 2.0 4.0 0.00 0.04 0.00 90 1078.4
20260901012147 62 180 1.0 4.0 0.00 0.04 0.00 90 1062.7
20260901011948 62 180 1.0 4.0 0.00 0.04 0.00 90 1076.8
20260901011448 62 202 1.0 4.0 0.00 0.04 0.00 90 1069.0
20260901010948 62 180 2.0 4.0 0.00 0.04 0.00 90 1061.3
20260901010448 62 202 2.0 5.0 0.00 0.04 0.00 90 1023.3
20260901005948 62 157 3.0 4.0 0.00 0.04 0.00 90 1064.2
20260901005448 62 157 1.0 5.0 0.00 0.04 0.00 90 1069.0
20260901004948 63 180 1.0 4.0 0.00 0.04 0.00 90 1056.4
20260901004847 63 157 2.0 4.0 0.00 0.04 0.00 90 1079.9
20260901004448 63 180 0.0 4.0 0.00 0.04 0.00 90 1056.4
20260901003948 63 135 1.0 4.0 0.00 0.04 0.00 90 1038.2
20260901003448 63 202 1.0 5.0 0.00 0.04 0.00 90 1019.3
20260901002948 63 180 5.0 6.0 0.00 0.04 0.00 90 1070.5
20260901002448 63 202 3.0 5.0 0.00 0.04 0.00 90 1062.7
20260901001948 63 180 1.0 3.0 0.00 0.04 0.00 90 1062.7
20260901001547 63 180 2.0 5.0 0.00 0.04 0.00 90 1018.9
20260901001448 63 157 2.0 5.0 0.00 0.04 0.00 90 1068.9
20260901000948 63 202 0.0 5.0 0.00 0.04 0.00 90 1064.5
20260901000450 63 180 2.0 4.0 0.00 0.04 0.00 90 1067.4
20260831235948 63 157 1.0 4.0 0.00 0.04 0.00 90 1072.1
20260831235448 63 180 4.0 4.0 0.00 0.04 0.00 90 1018.4
20260831234948 63 180 2.0 4.0 0.00 0.04 0.00 90 1062.6
20260831234448 63 180 1.0 4.0 0.00 0.04 0.00 90 1035.1
20260831234247 63 157 3.0 4.0 0.00 0.04 0.00 90 1084.7
20260831233948 63 157 4.0 4.0 0.00 0.04 0.00 90 1032.8
20260831233448 63 157 4.0 6.0 0.00 0.04 0.00 90 1075.2
20260831232948 63 202 5.0 6.0 0.00 0.04 0.00 89 1076.8
20260831232448 63 180 3.0 6.0 0.00 0.04 0.00 89 1062.7
20260831231948 63 225 3.0 6.0 0.00 0.04 0.00 89 1072.1